Terminal Aerodrome Forecast
Issued by NWS

Home | Current Version | Previous Version | Text Only | Print | Product List | Glossary On
Versions: 1 2 3 4 5 6 7 8 9 10 11 12 13 14 15 16 17 18 19 20 21 22 23 24 25 26
000
FTUS46 KSGX 061122
TAFSAN
TAF
KSAN 061122Z 0612/0718 VRB03KT P6SM FEW025 OVC035
     FM062000 26011KT P6SM FEW025 BKN035
     FM070100 29010KT P6SM FEW025 BKN035
     FM070700 23009KT P6SM OVC035
     FM071100 VRB05KT P6SM BKN035=

USA.gov is the U.S. government's official web portal to all federal, state and local government web resources and services.